User: anonymous   Login
Location: Unspecified
(0.0000°N, 0.0000°E)
Time: 05:54:40
(UTC+01:00)
Language:

Sapphire - Orbit

View from above orbital plane
View from above orbital plane
View from above satellite
View from above satellite

Ground track
Ground track

The orbit data is extracted from the following two-line orbital elements,

1 26932U 01043D   16344.42929188 -.00000031  00000-0  19962-4 0  9997
2 26932  67.0556 222.8580 0004018 282.0015  78.0636 14.30233926793238
Epoch (UTC): 09 December 2016 10:18:10
Eccentricity: 0.0004018
inclination: 67.0556°
perigee height: 788 km
apogee height: 794 km
right ascension of ascending node: 222.8580°
argument of perigee: 282.0015°
revolutions per day: 14.30233926
mean anomaly at epoch: 78.0636°
orbit number at epoch: 79323

The dashed part of the orbit path shows where the satellite is in the earth's shadow,  

DLR